DateTime,F1_A11,F1_S11,BsB_S11,BsG_S11,BsR_S11,BbsB_S11,BbsG_S11,BbsR_S11,BaB_A11,BaG_A11,BaR_A11,T_S11,U_S11,P_S11,T1_A11
2016-08-05T00:00:00Z,000038A,2000060A,,,,,,,,,,26.5,03.1,0673.4,34.7
2016-08-05T00:01:00Z,0000388,20000608,,,,,,,,,,26.5,03.1,0673.4,34.7
2016-08-05T00:02:00Z,0000388,20000608,,,,,,,,,,26.5,03.1,0673.4,34.7
2016-08-05T00:03:00Z,0000388,60000608,,,,,,,,,,26.5,03.1,0673.4,34.7
2016-08-05T00:04:00Z,0000388,40000608,0002.17,0003.21,0003.46,0001.10,0000.75,0001.13,0001.53,0001.45,0001.46,26.6,03.0,0674.4,34.7
2016-08-05T00:05:00Z,0000388,00000608,-000.72,0000.83,-000.02,0001.08,-000.16,0000.25,-000.08,-000.19,-000.30,26.6,02.9,0674.5,34.7
2016-08-05T00:06:00Z,0000388,00000608,0001.09,0000.59,-000.26,-000.08,-000.25,-000.24,0000.14,0000.10,-000.14,26.6,02.7,0674.5,34.7
2016-08-05T00:07:00Z,0000388,00000608,0000.15,0001.54,0000.46,0000.53,0000.08,0000.33,0000.05,0000.01,0000.13,26.6,02.5,0674.4,34.7
2016-08-05T00:08:00Z,0000388,00000608,-000.07,0000.90,0000.57,0000.17,-000.09,0000.00,0000.12,0000.11,0000.05,26.6,02.6,0674.4,34.7
2016-08-05T00:09:00Z,0000388,00000608,0002.91,0004.60,0004.92,0000.96,0001.03,0001.11,0002.26,0002.09,0001.74,26.6,03.0,0674.4,34.7
2016-08-05T00:10:00Z,0000388,00000608,0000.70,0000.04,-000.02,0000.34,0000.02,0000.47,0000.12,-000.16,-000.44,26.5,02.7,0674.5,34.7
2016-08-05T00:11:00Z,0000388,00000608,0000.00,0000.16,-000.20,0000.49,0000.47,-000.03,0000.07,0000.15,0000.57,26.5,02.5,0674.4,34.7
2016-08-05T00:12:00Z,0000388,00000608,0000.21,0000.53,0000.05,0000.64,0000.16,0000.63,0000.21,-000.05,-000.10,26.5,02.5,0674.4,34.7
2016-08-05T00:13:00Z,0000388,00000608,0000.15,0000.52,-000.26,0000.19,-000.08,0000.11,0000.15,0000.06,-000.01,26.5,02.6,0674.4,34.7
2016-08-05T00:14:00Z,0000388,00000608,-001.20,0000.24,0000.21,0000.53,0000.53,0000.35,-000.05,0000.01,0000.13,26.6,02.5,0674.4,34.7
2016-08-05T00:15:00Z,0000388,00000608,-000.03,0000.07,-000.05,0000.13,0000.17,0000.22,0000.10,0000.37,0000.08,26.6,02.7,0674.3,34.7
2016-08-05T00:16:00Z,0000388,00000608,-000.43,0000.33,0000.00,0000.53,-000.33,0000.02,0000.07,-000.04,-000.02,26.5,02.7,0674.3,34.7
2016-08-05T00:17:00Z,0000388,00000608,0000.90,0000.37,0000.76,0000.78,0000.34,0000.17,0000.41,0000.21,0000.14,26.5,02.7,0674.3,34.7
2016-08-05T00:18:00Z,0000388,00000608,0001.21,0000.88,0001.98,0000.39,0000.36,0000.52,0000.32,0000.39,0000.37,26.5,03.0,0674.3,34.7
2016-08-05T00:19:00Z,0000388,00000608,-000.21,0000.20,-000.08,0000.49,0000.37,-000.02,0000.04,0000.11,-000.16,26.5,02.9,0674.3,34.7
2016-08-05T00:20:00Z,0000388,00000608,0000.63,0000.76,-000.19,0000.22,0000.05,0000.35,0000.18,0000.10,0000.15,26.5,02.9,0674.3,34.7
2016-08-05T00:21:00Z,0000388,00000608,0000.96,0000.28,-000.12,0000.74,-000.61,-000.25,0000.12,0000.09,0000.15,26.5,02.9,0674.3,34.7
2016-08-05T00:22:00Z,0000388,00000608,0000.08,0000.23,0000.02,0000.63,0000.12,0000.33,-000.14,0000.01,0000.02,26.5,02.8,0674.2,34.7
2016-08-05T00:23:00Z,0000388,00000608,-000.76,0000.33,-000.46,0000.22,-000.17,0000.33,0000.06,-000.09,-000.15,26.5,02.6,0674.2,34.7
2016-08-05T00:24:00Z,0000388,00000608,0000.50,0000.82,0000.13,0000.27,0000.33,0000.50,0000.44,0000.33,0000.32,26.5,02.3,0674.1,34.7
2016-08-05T00:25:00Z,0000388,00000608,0000.56,0000.84,-000.01,0001.13,0000.36,0000.03,0000.27,0000.07,-000.01,26.5,02.4,0674.0,34.7
2016-08-05T00:26:00Z,0000388,00000608,0001.96,0000.92,0000.06,0000.55,0000.53,0000.30,0003.53,0003.30,0002.50,26.5,02.6,0674.0,34.7
2016-08-05T00:27:00Z,0000388,00000608,-000.39,0000.43,-000.04,0000.52,-000.03,0000.42,0000.16,0000.39,0000.24,26.5,02.8,0673.9,34.7
2016-08-05T00:28:00Z,0000388,00000608,0000.02,0000.77,-000.31,0000.53,0000.34,0000.24,-000.23,-000.37,-000.24,26.5,02.6,0674.0,34.7
2016-08-05T00:29:00Z,0000388,00000608,0000.64,0000.94,0000.62,0000.94,0000.11,0000.68,0000.32,0000.02,0000.18,26.5,02.1,0673.9,34.7
2016-08-05T00:30:00Z,0000388,00000608,0000.09,0000.52,-000.11,0000.14,-000.41,0000.28,0000.10,-000.00,-000.36,26.5,02.1,0673.8,34.8
2016-08-05T00:31:00Z,0000388,00000608,0001.64,0002.28,0003.32,0000.74,0000.50,0000.86,0001.48,0001.49,0001.24,26.5,02.5,0673.7,34.8
2016-08-05T00:32:00Z,0000388,00000608,0000.80,0000.33,0000.02,0000.64,0000.27,0000.33,0000.22,0000.12,-000.02,26.5,02.4,0673.7,34.8
2016-08-05T00:33:00Z,0000388,00000608,0000.04,0000.19,-000.29,0000.61,0000.09,0000.28,0000.02,0000.04,0000.21,26.5,02.3,0673.6,34.8
2016-08-05T00:34:00Z,0000388,00000608,-000.16,0000.51,-000.36,0000.19,0000.13,-000.06,0000.04,-000.10,-000.08,26.5,02.3,0673.6,34.8
2016-08-05T00:35:00Z,0000388,00000608,0000.16,0000.73,-000.20,0000.28,0000.13,0000.08,-000.03,0000.07,0000.14,26.5,02.1,0673.5,34.8
2016-08-05T00:36:00Z,0000388,00000608,0000.93,0000.14,0000.30,-000.03,-000.06,0000.09,0000.02,-000.09,-000.47,26.5,02.0,0673.4,34.8
2016-08-05T00:37:00Z,0000388,00000608,0000.76,0001.04,0000.66,0000.36,0000.14,0000.47,0000.83,0000.66,0000.95,26.5,02.0,0673.4,34.8
2016-08-05T00:38:00Z,0000388,00000608,0000.39,0000.53,0000.16,0000.05,0000.09,0000.16,0000.06,0000.21,-000.01,26.5,02.0,0673.3,34.8
2016-08-05T00:39:00Z,0000388,00000608,0000.00,0000.77,0000.05,0000.75,0000.50,0000.50,0000.11,0000.08,-000.08,26.5,01.9,0673.3,34.8
2016-08-05T00:40:00Z,0000388,00000608,0000.68,0001.65,0000.88,0000.60,0000.48,0000.36,0000.34,0000.13,0000.24,26.5,02.0,0673.2,34.8
2016-08-05T00:41:00Z,0000388,00000608,-000.31,0000.31,-000.05,0000.33,0000.05,0000.28,0000.04,0000.11,-000.06,26.5,02.0,0673.2,34.8
2016-08-05T00:42:00Z,0000388,00000608,-000.10,0000.34,0000.11,0000.27,0000.00,0000.60,0000.23,0000.03,0000.02,26.5,02.0,0673.2,34.8
2016-08-05T00:43:00Z,0000388,00000608,0000.32,-000.02,0000.10,0000.72,-000.22,0000.25,-000.06,-000.19,0000.07,26.5,01.9,0673.1,34.8
2016-08-05T00:44:00Z,0000388,00000608,0000.66,0000.62,0000.05,0000.85,0000.25,0000.00,-000.08,0000.19,0000.09,26.5,01.9,0673.1,34.8
2016-08-05T00:45:00Z,000038A,0000060A,0000.66,0000.09,-000.21,0000.80,0000.13,0000.31,0000.17,0000.16,0000.10,26.5,01.9,0673.1,34.7
2016-08-05T00:46:00Z,000038A,0000060A,-000.45,0000.29,0000.02,0000.30,-000.03,0000.31,0000.01,-000.05,-000.09,26.5,01.8,0673.1,34.7
2016-08-05T00:47:00Z,0000382,00000602,0000.69,0000.68,0000.52,0000.13,0000.03,0000.90,0000.24,0000.29,-000.11,26.4,01.9,0673.1,34.7
2016-08-05T00:48:00Z,0000382,00000602,0000.09,0000.51,-000.22,0000.77,0000.00,0000.11,0000.11,0000.15,0000.45,26.5,01.9,0673.0,34.7
2016-08-05T00:49:00Z,0000382,00000602,-000.67,0000.58,0000.19,0000.52,0000.13,0000.06,0000.42,0000.04,0000.19,26.4,02.0,0673.0,34.7
2016-08-05T00:50:00Z,0000382,00000602,-000.06,0000.15,-000.09,0000.90,0000.08,0000.25,0000.05,0000.20,-000.23,26.4,01.9,0673.0,34.7
2016-08-05T00:51:00Z,0000382,00000602,0004.31,0006.93,0006.93,0002.18,0001.27,0001.79,0003.15,0002.96,0002.45,26.4,02.6,0673.0,34.7
2016-08-05T00:52:00Z,0000382,00000602,0000.72,0000.70,0000.31,0000.31,-000.09,0000.06,-000.13,-000.30,-000.17,26.4,02.3,0673.1,34.7
2016-08-05T00:53:00Z,0000382,00000602,0000.45,0000.27,-000.36,0000.79,0000.08,0000.38,-000.03,-000.09,-000.07,26.4,02.0,0673.0,34.7
2016-08-05T00:54:00Z,0000382,00000602,0000.52,0001.13,0000.47,0000.31,-000.05,0000.27,0000.54,0000.46,0000.23,26.3,01.9,0673.0,34.7
2016-08-05T00:55:00Z,0000382,00000602,0001.09,0000.30,0000.18,0000.22,-000.41,0000.28,0000.01,-000.10,0000.04,26.4,02.1,0673.0,34.7
2016-08-05T00:56:00Z,0000382,00000602,0000.28,0000.40,0000.43,0000.24,0000.33,0000.08,0000.04,0000.01,-000.01,26.3,02.0,0673.0,34.7
2016-08-05T00:57:00Z,0000382,40000602,,,,,,,,,,,,0672.7,34.7
2016-08-05T00:58:00Z,0000382,60000602,,,,,,,,,,26.2,02.4,0671.9,34.7
2016-08-05T00:59:00Z,0000382,20000602,,,,,,,,,,26.2,02.2,0671.9,34.7
2016-08-05T01:00:00Z,0000382,20000602,,,,,,,,,,26.2,02.2,0671.9,34.7
2016-08-05T01:01:00Z,0000388,20000608,,,,,,,,,,26.2,02.2,0671.9,34.7
2016-08-05T01:02:00Z,0000388,20000608,,,,,,,,,,26.2,02.2,0671.9,34.7
2016-08-05T01:03:00Z,0000388,60000608,,,,,,,,,,26.2,02.2,0671.9,34.7
2016-08-05T01:04:00Z,0000388,40000608,-000.05,0000.83,-000.05,-000.35,-000.31,-000.02,0000.16,0000.07,-000.06,26.3,02.2,0672.8,34.7
2016-08-05T01:05:00Z,0000388,00000608,0000.13,0000.23,-000.27,0000.17,0000.05,-000.06,-000.06,0000.00,-000.08,26.2,02.1,0672.9,34.7
2016-08-05T01:06:00Z,0000388,00000608,-000.09,0000.76,0000.10,0000.05,-000.19,0000.41,0000.07,-000.06,0000.11,26.2,02.2,0672.9,34.7
2016-08-05T01:07:00Z,0000388,00000608,-000.01,0000.22,0000.37,-000.33,0000.06,0000.13,-000.01,0000.03,-000.02,26.3,02.2,0672.9,34.7
2016-08-05T01:08:00Z,0000388,00000608,0000.26,0000.34,0000.14,0000.46,0000.14,-000.17,0000.33,0000.28,0000.10,26.2,02.2,0672.9,34.7
2016-08-05T01:09:00Z,0000388,00000608,0000.35,0000.35,0000.48,0000.67,0000.00,0000.03,0000.22,0000.22,0000.28,26.2,02.2,0672.9,34.7
2016-08-05T01:10:00Z,0000388,00000608,0000.15,0000.92,0000.52,-000.08,-000.13,0000.09,0000.07,0000.01,-000.14,26.2,02.3,0672.9,34.7
2016-08-05T01:11:00Z,0000388,00000608,0000.05,0000.20,-000.24,0000.16,-000.31,0000.05,-000.04,0000.05,0000.21,26.2,02.2,0672.9,34.7
2016-08-05T01:12:00Z,0000388,00000608,-000.44,0000.84,0000.00,0000.06,-000.09,-000.13,0000.09,0000.02,0000.04,26.2,02.2,0672.9,34.7
2016-08-05T01:13:00Z,0000388,00000608,0000.62,0000.40,-000.12,-000.28,-000.05,0000.24,0000.13,0000.08,-000.08,26.1,02.2,0672.9,34.7
2016-08-05T01:14:00Z,0000388,00000608,0000.25,0000.02,-000.42,-000.47,-000.02,0000.11,0000.20,0000.00,0000.22,26.1,02.3,0672.9,34.7
2016-08-05T01:15:00Z,0000388,00000608,-000.46,-000.34,-000.07,0000.08,-000.16,0000.08,0000.05,0000.13,-000.04,26.1,02.3,0672.9,34.7
2016-08-05T01:16:00Z,0000388,00000608,0000.43,-000.24,-000.20,-000.02,-000.22,-000.20,0000.01,-000.07,-000.11,26.1,02.2,0672.9,34.7
2016-08-05T01:17:00Z,0000388,00000608,0000.19,0001.14,-000.06,0000.50,-000.33,-000.11,0000.08,0000.23,0000.41,26.2,02.3,0672.9,34.7
2016-08-05T01:18:00Z,0000388,00000608,0000.23,0000.29,0000.02,0000.20,0000.52,-000.03,-000.00,0000.10,-000.11,26.1,02.2,0672.9,34.7
2016-08-05T01:19:00Z,0000388,00000608,0000.22,0000.16,-000.17,-000.19,0000.28,0000.05,-000.18,-000.24,-000.24,26.1,02.1,0672.9,34.7
2016-08-05T01:20:00Z,0000388,00000608,0000.63,0000.62,0000.15,-000.14,0000.14,0000.06,0000.19,0000.26,0000.06,26.1,02.2,0672.9,34.7
2016-08-05T01:21:00Z,0000388,00000608,0000.19,-000.24,-000.02,0000.30,-000.14,-000.08,-000.05,-000.20,-000.11,26.1,02.1,0673.0,34.7
2016-08-05T01:22:00Z,0000388,00000608,0001.29,0002.18,0001.84,0000.03,0000.20,0000.53,0000.83,0000.50,0000.42,26.1,02.3,0673.0,34.7
2016-08-05T01:23:00Z,0000388,00000608,0000.21,0000.45,-000.07,-000.31,0000.39,0000.03,-000.06,0000.26,-000.02,26.1,02.1,0673.0,34.7
2016-08-05T01:24:00Z,0000388,00000608,-000.04,0000.77,0000.32,0000.14,0000.05,0000.06,-000.13,-000.11,0000.04,26.1,02.0,0673.0,34.7
2016-08-05T01:25:00Z,0000388,00000608,0000.92,-000.22,-000.31,0000.88,-000.06,-000.02,0000.28,-000.05,-000.04,26.1,02.0,0672.9,34.7
2016-08-05T01:26:00Z,0000388,00000608,0001.09,-000.11,-000.19,0000.17,-000.27,-000.31,-000.20,0000.11,0000.23,26.1,02.0,0672.9,34.7
2016-08-05T01:27:00Z,0000388,00000608,-000.45,0000.03,0000.38,0000.66,0000.12,0000.05,0000.13,-000.02,-000.14,26.1,02.0,0672.9,34.7
2016-08-05T01:28:00Z,0000388,00000608,0000.21,0000.05,-000.17,0000.13,0000.37,0000.09,0000.04,0000.12,-000.03,26.1,02.0,0672.9,34.7
2016-08-05T01:29:00Z,0000388,00000608,0000.38,-000.46,-000.28,0000.30,-000.20,-000.36,0000.18,0000.03,0000.25,26.0,01.9,0672.9,34.7
2016-08-05T01:30:00Z,0000388,00000608,-000.61,0000.54,0000.12,-000.28,-000.25,0000.47,0000.37,0000.35,0000.02,26.1,02.1,0672.9,34.7
2016-08-05T01:31:00Z,0000388,00000608,-000.38,-000.19,0000.02,0000.24,0000.00,-000.19,-000.10,-000.09,0000.28,26.1,02.2,0672.9,34.7
2016-08-05T01:32:00Z,0000388,00000608,-000.07,0000.87,-000.02,-000.38,0000.08,-000.16,-000.01,0000.10,0000.07,26.2,02.2,0672.9,34.7
2016-08-05T01:33:00Z,0000388,00000608,-001.16,-000.02,-000.09,-000.35,0000.05,-000.52,0000.11,0000.28,0000.26,26.2,02.2,0672.9,34.7
2016-08-05T01:34:00Z,0000388,00000608,0000.24,0000.19,0000.08,-000.35,-000.14,0000.03,0000.06,0000.07,-000.05,26.2,02.3,0672.9,34.7
2016-08-05T01:35:00Z,0000388,00000608,-000.44,0000.76,0000.94,0000.16,-000.06,0000.19,0000.31,0000.20,0000.30,26.2,02.3,0672.9,34.7
2016-08-05T01:36:00Z,0000388,00000608,0001.53,0000.34,0000.57,0000.06,-000.34,0000.17,0000.11,0000.18,-000.06,26.2,02.4,0672.9,34.7
2016-08-05T01:37:00Z,0000388,00000608,0001.57,0001.35,0001.04,0000.49,0000.33,0000.30,0000.15,0000.19,0000.14,26.2,02.4,0672.9,34.7
2016-08-05T01:38:00Z,0000388,00000608,0000.89,0000.84,0000.48,0000.25,-000.13,0000.22,0000.26,0000.14,0000.21,26.2,02.4,0673.0,34.7
2016-08-05T01:39:00Z,0000388,00000608,0001.67,0000.88,0000.33,0000.39,0000.11,0000.08,0000.06,0000.10,0000.00,26.2,02.4,0673.0,34.7
2016-08-05T01:40:00Z,0000388,00000608,0001.12,0001.63,0000.13,0000.17,0000.27,0000.28,0000.54,0000.35,0000.14,26.2,02.5,0673.0,34.7
2016-08-05T01:41:00Z,0000388,00000608,0001.27,0001.65,0000.41,0000.88,-000.23,0000.22,0000.03,0000.07,0000.19,26.2,02.4,0673.0,34.7
2016-08-05T01:42:00Z,0000388,00000608,0001.30,0000.58,0000.17,0000.55,-000.22,0000.09,0000.11,0000.12,0000.22,26.2,02.5,0673.0,34.7
2016-08-05T01:43:00Z,0000388,00000608,0001.43,0001.49,0001.17,0000.36,-000.03,-000.03,0000.38,0000.26,0000.29,26.2,02.5,0672.9,34.7
2016-08-05T01:44:00Z,0000388,00000608,0001.66,0001.49,0000.31,0000.30,0000.20,-000.08,0000.21,0000.17,-000.02,26.2,02.6,0672.9,34.7
2016-08-05T01:45:00Z,0000388,00000608,0001.38,0001.53,0000.73,0000.49,-000.22,0000.19,0000.08,0000.23,-000.07,26.2,02.5,0672.9,34.7
2016-08-05T01:46:00Z,0000388,00000608,0000.84,0000.82,0000.28,0000.13,0000.14,0000.14,0000.15,0000.13,0000.20,26.2,02.6,0672.9,34.7
2016-08-05T01:47:00Z,0000388,00000608,0000.97,0000.85,0000.06,-000.35,0000.45,-000.13,0000.41,0000.15,0000.15,26.2,02.7,0672.9,34.7
2016-08-05T01:48:00Z,0000388,00000608,0000.78,0000.40,0000.24,0000.88,0000.16,-000.08,0000.17,0000.12,0000.49,26.2,02.6,0672.8,34.7
2016-08-05T01:49:00Z,0000388,00000608,0002.17,0001.89,0002.48,0000.46,0000.41,0000.17,0000.90,0000.98,0000.56,26.2,03.0,0672.8,34.7
2016-08-05T01:50:00Z,0000388,00000608,0001.11,0001.19,0000.92,0000.08,0000.14,0000.11,0000.26,0000.34,0000.26,26.2,02.9,0672.9,34.7
2016-08-05T01:51:00Z,0000388,00000608,0000.82,0000.27,0000.04,-000.25,0000.20,-000.24,0000.32,0000.26,0000.04,26.2,02.9,0672.9,34.7
2016-08-05T01:52:00Z,0000388,00000608,0001.27,0000.96,0000.47,0000.78,0000.02,0000.20,0000.15,0000.07,0000.22,26.2,02.8,0672.9,34.7
2016-08-05T01:53:00Z,0000388,00000608,0000.48,0000.82,0000.05,0000.03,-000.05,0000.11,0000.32,0000.27,0000.23,26.2,02.8,0672.9,34.7
2016-08-05T01:54:00Z,0000388,00000608,0000.94,0000.69,0000.27,0000.35,0000.03,0000.41,0000.11,-000.17,-000.08,26.2,02.8,0672.9,34.7
2016-08-05T01:55:00Z,0000388,00000608,-000.19,0001.04,0000.31,0000.25,0000.12,-000.06,0000.09,0000.32,0000.17,26.1,02.8,0672.9,34.7
2016-08-05T01:56:00Z,0000388,00000608,0001.12,0001.10,0000.21,0000.19,0000.69,-000.33,0000.24,-000.00,0000.20,26.2,02.6,0672.9,34.7
2016-08-05T01:57:00Z,0000388,40000608,,,,,,,,,,,,0672.8,34.7
2016-08-05T01:58:00Z,0000388,60000608,,,,,,,,,,26.0,02.5,0671.8,34.7
2016-08-05T01:59:00Z,0000388,20000608,,,,,,,,,,26.0,02.5,0671.8,34.7
2016-08-05T02:00:00Z,0000388,20000608,,,,,,,,,,26.0,02.5,0671.8,34.7
2016-08-05T02:01:00Z,0000388,20000608,,,,,,,,,,26.0,02.5,0671.8,34.7
2016-08-05T02:02:00Z,0000388,20000608,,,,,,,,,,26.0,02.5,0671.8,34.7
2016-08-05T02:03:00Z,0000388,60000608,,,,,,,,,,26.1,02.5,0671.8,34.7
2016-08-05T02:04:00Z,0000388,40000608,-000.22,0000.73,-000.21,0000.33,0000.06,-000.57,0000.01,0000.22,0000.11,26.2,02.5,0672.7,34.7
2016-08-05T02:05:00Z,0000388,00000608,0006.36,0008.83,0008.93,0001.19,0001.44,0001.90,0004.05,0003.70,0003.28,26.2,03.2,0672.8,34.7
2016-08-05T02:06:00Z,0000388,00000608,0001.16,0000.08,0000.25,0000.00,0000.00,0000.00,-000.12,-000.33,-000.60,26.1,03.0,0672.8,34.7
2016-08-05T02:07:00Z,0000388,00000608,0000.19,0000.16,0000.26,0000.14,-000.13,-000.31,0000.19,0000.08,0000.16,26.1,02.5,0672.7,34.7
2016-08-05T02:08:00Z,0000388,00000608,0000.58,0000.67,-000.05,0000.06,0000.08,0000.00,0000.20,0000.16,0000.09,26.1,02.4,0672.7,34.7
2016-08-05T02:09:00Z,0000388,00000608,0000.20,-000.40,-000.18,0000.49,-000.09,-000.41,0000.06,0000.02,-000.16,26.1,02.4,0672.7,34.7
2016-08-05T02:10:00Z,0000388,00000608,0000.20,0000.19,0000.29,0000.17,-000.41,0000.05,-000.05,0000.09,0000.20,26.1,02.3,0672.7,34.7
2016-08-05T02:11:00Z,0000388,00000608,0000.00,0000.51,-000.19,0000.06,-000.22,-000.36,0000.15,-000.03,-000.06,26.1,02.3,0672.7,34.7
2016-08-05T02:12:00Z,0000388,00000608,-000.24,0000.15,-000.22,-000.49,-000.19,-000.25,0000.17,0000.16,0000.18,26.0,02.3,0672.7,34.7
2016-08-05T02:13:00Z,0000388,00000608,0000.91,-000.13,-000.06,-000.36,-000.03,-000.31,0000.26,0000.09,-000.15,26.0,02.2,0672.7,34.7
2016-08-05T02:14:00Z,0000388,00000608,0001.10,0000.08,-000.02,0000.11,-000.06,0000.02,0000.06,0000.05,0000.36,26.0,02.2,0672.8,34.7
2016-08-05T02:15:00Z,0000388,00000608,0000.37,-000.25,0000.55,0000.36,0000.06,-000.46,-000.03,-000.02,-000.18,26.0,02.2,0672.8,34.7
2016-08-05T02:16:00Z,0000388,00000608,-000.09,0000.31,-000.20,0000.36,-000.47,0000.11,0000.06,0000.32,0000.21,26.1,02.2,0672.7,34.7
2016-08-05T02:17:00Z,0000388,00000608,0000.85,0000.00,-000.15,-000.08,-000.30,-000.02,0000.32,0000.03,-000.07,26.1,02.2,0672.8,34.7
2016-08-05T02:18:00Z,0000388,00000608,0000.38,0000.14,-000.28,0000.22,0000.14,0000.24,-000.06,0000.22,0000.30,26.2,02.1,0672.7,34.7
2016-08-05T02:19:00Z,0000388,00000608,-000.18,0000.32,-000.61,-000.82,-000.16,-000.39,0000.06,-000.14,0000.04,26.2,02.3,0672.8,34.7
2016-08-05T02:20:00Z,0000388,00000608,0006.06,0005.91,0008.24,0000.14,0000.98,0001.51,0003.01,0002.97,0002.65,26.2,02.3,0672.8,34.7
2016-08-05T02:21:00Z,0000388,00000608,0000.32,0000.52,0000.45,-000.09,0000.23,-000.38,-000.09,-000.24,-000.59,26.2,03.2,0672.8,34.7
2016-08-05T02:22:00Z,0000388,00000608,-000.58,0000.59,0000.35,-000.14,0000.53,0000.27,0000.17,0000.01,-000.15,26.2,02.4,0672.8,34.7
2016-08-05T02:23:00Z,0000388,00000608,-000.35,0000.18,-000.37,0000.33,-000.13,-000.17,-000.05,-000.07,0000.23,26.2,02.2,0672.8,34.7
2016-08-05T02:24:00Z,0000388,00000608,-000.23,-000.49,-000.24,-000.33,-000.08,-000.35,0000.24,0000.08,-000.13,26.2,02.2,0672.8,34.7
2016-08-05T02:25:00Z,0000388,00000608,0001.05,0000.43,0000.43,0000.39,0000.14,-000.11,0000.06,0000.14,0000.36,26.2,02.1,0672.8,34.7
2016-08-05T02:26:00Z,0000388,00000608,0000.31,0000.05,-000.27,0000.08,0000.08,-000.58,0000.04,0000.04,-000.21,26.2,02.0,0672.8,34.7
2016-08-05T02:27:00Z,0000388,00000608,0000.47,0000.61,0000.24,0000.03,-000.36,-000.14,0000.12,-000.01,0000.09,26.2,02.1,0672.8,34.7
2016-08-05T02:28:00Z,0000388,00000608,-000.10,0000.25,0000.32,-000.38,0000.06,0000.31,-000.08,0000.08,0000.07,26.2,02.1,0672.8,34.7
2016-08-05T02:29:00Z,0000388,00000608,-000.08,0000.08,-000.03,-000.35,-000.05,-000.36,0000.22,0000.21,-000.18,26.2,02.2,0672.8,34.7
2016-08-05T02:30:00Z,0000388,00000608,0000.64,0000.29,0000.17,-000.24,-000.20,-000.31,0000.09,-000.04,-000.05,26.2,02.1,0672.9,34.7
2016-08-05T02:31:00Z,0000388,00000608,-000.06,0000.41,-000.20,0000.02,-000.20,-000.31,-000.02,0000.16,0000.32,26.2,02.1,0672.8,34.7
2016-08-05T02:32:00Z,0000388,00000608,0000.69,-000.31,-000.02,-000.06,-000.36,-000.05,0000.16,-000.07,0000.11,26.2,02.1,0672.9,34.7
2016-08-05T02:33:00Z,0000388,00000608,0000.47,0000.01,-000.27,0000.08,-000.22,-000.19,-000.06,0000.07,-000.16,26.2,02.1,0672.9,34.7
2016-08-05T02:34:00Z,0000388,00000608,0000.56,-000.35,0000.02,0000.71,0000.11,0000.20,0000.22,0000.06,-000.05,26.2,02.1,0672.9,34.7
2016-08-05T02:35:00Z,0000388,00000608,0000.06,-000.15,0000.16,-000.44,0000.03,0000.08,0000.05,-000.00,0000.06,26.3,02.1,0672.9,34.7
2016-08-05T02:36:00Z,0000388,00000608,0000.54,-000.43,-000.29,-000.11,-000.09,-000.02,-000.02,0000.23,0000.22,26.3,02.1,0672.9,34.7
2016-08-05T02:37:00Z,0000388,00000608,-000.57,0000.18,0000.38,-000.52,0000.31,-000.13,0000.00,0000.08,-000.03,26.3,02.0,0672.9,34.7
2016-08-05T02:38:00Z,0000388,00000608,0006.72,0008.86,0011.64,0001.30,0001.61,0002.09,0004.67,0004.10,0003.61,26.3,02.6,0672.9,34.7
2016-08-05T02:39:00Z,0000388,00000608,-000.02,-000.63,-000.41,0000.05,-000.30,-000.08,-000.11,-000.24,-000.33,26.3,02.6,0673.0,34.7
2016-08-05T02:40:00Z,0000388,00000608,-000.64,-000.20,0000.10,0000.36,0000.08,-000.08,-000.03,-000.07,-000.32,26.2,02.2,0672.9,34.7
2016-08-05T02:41:00Z,0000388,00000608,0001.11,0000.08,0000.10,0000.19,-000.08,0000.11,0000.13,0000.18,-000.01,26.2,02.1,0672.9,34.7
2016-08-05T02:42:00Z,0000388,00000608,0000.99,0000.28,-000.32,0000.52,0000.09,-000.30,0000.23,-000.01,0000.14,26.2,02.0,0672.9,34.7
2016-08-05T02:43:00Z,0000388,00000608,0001.03,0000.32,0000.91,0000.35,-000.02,-000.16,0000.23,0000.35,0000.15,26.2,02.0,0672.9,34.7
2016-08-05T02:44:00Z,0000388,00000608,-000.21,0000.08,0000.10,0000.20,0000.17,-000.27,0000.23,0000.12,0000.11,26.2,02.0,0672.9,34.7
2016-08-05T02:45:00Z,0000388,00000608,0001.16,-000.11,0000.08,-000.16,0000.14,0000.13,-000.01,0000.04,0000.19,26.2,02.0,0672.9,34.7
2016-08-05T02:46:00Z,0000388,00000608,0000.22,-000.16,0000.06,0000.05,-000.17,0000.00,0000.28,0000.24,0000.06,26.2,02.0,0672.9,34.7
2016-08-05T02:47:00Z,0000388,00000608,0000.46,-000.10,-000.21,-000.05,-000.14,0000.13,0000.36,0000.46,0000.26,26.2,02.0,0672.9,34.7
2016-08-05T02:48:00Z,0000388,00000608,0001.01,0000.48,0000.11,0000.41,0000.05,0000.46,0001.45,0001.25,0001.22,26.2,02.0,0672.9,34.7
2016-08-05T02:49:00Z,0000388,00000608,0001.92,0000.57,0000.58,0000.42,0000.39,-000.25,0005.32,0004.81,0003.95,26.2,02.1,0672.9,34.7
2016-08-05T02:50:00Z,0000388,00000608,0000.40,0000.73,0000.14,0000.14,0000.30,0000.17,0002.64,0002.21,0001.69,26.2,02.0,0673.0,34.7
2016-08-05T02:51:00Z,0000388,00000608,0002.82,0002.29,0000.52,0000.63,0000.25,-000.05,0007.42,0006.57,0005.20,26.1,02.0,0673.0,34.7
2016-08-05T02:52:00Z,0000388,00000608,0003.41,0002.48,0001.58,0000.53,0000.33,0000.17,0012.02,0010.72,0008.72,26.2,02.0,0673.0,34.7
2016-08-05T02:53:00Z,0000388,00000608,0005.05,0002.57,0001.77,0001.08,0000.88,0000.31,0012.88,0011.38,0008.72,26.2,02.1,0672.9,34.7
2016-08-05T02:54:00Z,0000388,00000608,0004.55,0002.88,0001.47,0000.99,0000.83,0000.11,0013.60,0012.20,0010.26,26.1,02.1,0673.0,34.7
2016-08-05T02:55:00Z,0000388,00000608,0002.11,0001.82,0000.48,-000.02,0000.45,-000.22,0005.72,0005.01,0004.26,26.2,02.0,0673.0,34.7
2016-08-05T02:56:00Z,0000388,00000608,0000.72,-000.19,0000.26,0000.31,0000.02,0000.00,0000.22,0000.27,-000.07,26.1,02.0,0673.0,34.7
2016-08-05T02:57:00Z,0000388,40000608,,,,,,,,,,,,0673.0,34.7
2016-08-05T02:58:00Z,0000388,60000608,,,,,,,,,,26.0,02.2,0671.9,34.7
2016-08-05T02:59:00Z,0000388,20000608,,,,,,,,,,26.0,02.0,0671.9,34.7
2016-08-05T03:00:00Z,0000388,20000608,,,,,,,,,,26.0,02.0,0671.9,34.7
2016-08-05T03:01:00Z,0000388,20000608,,,,,,,,,,26.0,02.0,0671.9,34.7
2016-08-05T03:02:00Z,0000388,20000608,,,,,,,,,,26.0,02.0,0671.9,34.7
2016-08-05T03:03:00Z,0000388,60000608,,,,,,,,,,26.0,02.0,0671.9,34.7
2016-08-05T03:04:00Z,0000388,40000608,0000.46,0000.10,0000.05,0000.11,-000.03,0000.25,0000.31,0000.32,0000.49,26.1,02.0,0672.8,34.7
2016-08-05T03:05:00Z,0000388,00000608,0000.32,0000.34,0000.43,0000.05,0000.00,-000.03,0001.70,0001.49,0001.12,26.0,02.0,0672.9,34.7
2016-08-05T03:06:00Z,0000388,00000608,0000.62,0000.87,0000.47,0000.85,-000.22,0000.50,0003.96,0003.46,0002.87,26.1,02.0,0672.9,34.7
2016-08-05T03:07:00Z,0000388,00000608,-000.09,0000.11,0000.56,0000.03,-000.14,-000.13,0001.60,0001.51,0001.11,26.0,01.9,0672.9,34.7
2016-08-05T03:08:00Z,0000388,00000608,0001.18,0000.02,0000.49,-000.17,-000.22,-000.31,0000.34,0000.28,0000.13,26.0,01.9,0672.9,34.7
2016-08-05T03:09:00Z,0000388,00000608,0000.97,0000.14,0000.00,0000.24,-000.19,0000.06,0000.37,0000.22,0000.01,26.0,01.9,0672.9,34.7
2016-08-05T03:10:00Z,0000388,00000608,0000.48,0000.45,0000.29,0000.64,-000.05,-000.27,-000.04,0000.06,0000.20,26.0,01.8,0672.9,34.7
2016-08-05T03:11:00Z,0000388,00000608,0000.54,-000.41,-000.16,-000.25,0000.20,-000.03,0000.12,-000.09,-000.04,26.0,01.7,0673.0,34.7
2016-08-05T03:12:00Z,0000388,00000608,0000.29,0000.08,-000.11,0000.47,0000.05,-000.24,-000.06,0000.06,-000.13,26.0,01.7,0673.0,34.7